• In Deutschland
  • Länderverzeichnis
  • Für 7 Tage
  • Wassertemperatur
  • Satellitenkarten
  • Wetterkarte
  • Widgets
  • user-avatar
    Anmelden

    Stündliche Wetter Eibenstock

    Heute, 15 Dezember, Freitag

    Zeit Temperatur Niederschläge Wind Luftdruck Luftfeuchtigkeit
    00:00 -1°C° 0,1 mm 3 m/S 688 mmHg 89%
    01:00 -1°C° 0,1 mm 3 m/S 688 mmHg 90%
    02:00 -1°C° 0,2 mm 3 m/S 687 mmHg 91%
    03:00 -1°C° 0,2 mm 3 m/S 687 mmHg 91%
    04:00 -1°C° 0,2 mm 3 m/S 687 mmHg 91%
    05:00 -2°C° 0,8 mm 4 m/S 687 mmHg 90%
    06:00 -1°C° 0,8 mm 5 m/S 687 mmHg 90%
    07:00 -1°C° 0,8 mm 5 m/S 687 mmHg 89%
    08:00 -2°C° 0,2 mm 6 m/S 688 mmHg 87%
    09:00 -2°C° 0,2 mm 6 m/S 688 mmHg 85%
    10:00 -3°C° 0,2 mm 6 m/S 689 mmHg 84%
    11:00 -2°C° 0 mm 6 m/S 689 mmHg 82%
    12:00 -1°C° 0 mm 5 m/S 689 mmHg 80%
    13:00 -1°C° 0 mm 5 m/S 690 mmHg 77%
    14:00 -2°C° 0 mm 4 m/S 690 mmHg 81%
    15:00 -1°C° 0 mm 3 m/S 690 mmHg 85%
    16:00 0°C° 0 mm 1 m/S 690 mmHg 89%
    17:00 0°C° 0,2 mm 1 m/S 690 mmHg 90%
    18:00 -2°C° 0,2 mm 2 m/S 691 mmHg 91%
    19:00 -1°C° 0,2 mm 2 m/S 691 mmHg 92%
    20:00 -1°C° 0,5 mm 2 m/S 691 mmHg 93%
    21:00 -1°C° 0,5 mm 2 m/S 691 mmHg 93%
    22:00 -1°C° 0,5 mm 2 m/S 692 mmHg 94%
    23:00 -2°C° 0,2 mm 2 m/S 692 mmHg 94%

    Morgen, 16 Dezember, Samstag

    Zeit Temperatur Niederschläge Wind Luftdruck Luftfeuchtigkeit
    00:00 -2°C° 0,2 mm 2 m/S 692 mmHg 94%
    01:00 -2°C° 0,2 mm 2 m/S 692 mmHg 94%
    02:00 -1°C° 0 mm 1 m/S 693 mmHg 95%
    03:00 -1°C° 0 mm 1 m/S 693 mmHg 95%
    04:00 -1°C° 0 mm 1 m/S 693 mmHg 96%
    05:00 -3°C° 0,1 mm 2 m/S 693 mmHg 95%
    06:00 -3°C° 0,1 mm 2 m/S 694 mmHg 95%
    07:00 -3°C° 0,1 mm 2 m/S 694 mmHg 95%
    08:00 -2°C° 0,1 mm 2 m/S 695 mmHg 93%
    09:00 -2°C° 0,1 mm 2 m/S 695 mmHg 92%
    10:00 -2°C° 0,1 mm 3 m/S 696 mmHg 91%
    11:00 -2°C° 0,1 mm 3 m/S 696 mmHg 90%
    12:00 -1°C° 0,1 mm 3 m/S 697 mmHg 88%
    13:00 -2°C° 0,1 mm 4 m/S 697 mmHg 87%
    14:00 -2°C° 0,1 mm 4 m/S 697 mmHg 88%
    15:00 -3°C° 0,1 mm 4 m/S 698 mmHg 88%
    16:00 -3°C° 0,1 mm 4 m/S 698 mmHg 89%
    17:00 -3°C° 0 mm 4 m/S 699 mmHg 89%
    18:00 -4°C° 0 mm 4 m/S 699 mmHg 89%
    19:00 -4°C° 0 mm 4 m/S 699 mmHg 89%
    20:00 -4°C° 0 mm 4 m/S 700 mmHg 89%
    21:00 -4°C° 0 mm 4 m/S 700 mmHg 90%
    22:00 -4°C° 0 mm 4 m/S 701 mmHg 90%
    23:00 -4°C° 0,1 mm 4 m/S 701 mmHg 91%

    übermorgen, 17 Dezember, Sonntag

    Zeit Temperatur Niederschläge Wind Luftdruck Luftfeuchtigkeit
    00:00 -4°C° 0,1 mm 4 m/S 702 mmHg 91%
    01:00 -4°C° 0,1 mm 4 m/S 702 mmHg 91%
    02:00 -4°C° 0,1 mm 4 m/S 702 mmHg 91%
    03:00 -4°C° 0,1 mm 4 m/S 702 mmHg 91%
    04:00 -5°C° 0,1 mm 5 m/S 703 mmHg 91%
    05:00 -5°C° 0,1 mm 5 m/S 703 mmHg 91%
    06:00 -5°C° 0,1 mm 5 m/S 704 mmHg 91%
    07:00 -5°C° 0,1 mm 5 m/S 704 mmHg 90%
    08:00 -5°C° 0,2 mm 5 m/S 705 mmHg 90%
    09:00 -5°C° 0,2 mm 5 m/S 705 mmHg 89%
    10:00 -5°C° 0,2 mm 5 m/S 706 mmHg 88%
    11:00 -4°C° 0,2 mm 5 m/S 706 mmHg 88%
    12:00 -4°C° 0,2 mm 5 m/S 707 mmHg 87%
    13:00 -4°C° 0,2 mm 5 m/S 707 mmHg 86%
    14:00 -4°C° 0,1 mm 5 m/S 707 mmHg 86%
    15:00 -4°C° 0,1 mm 5 m/S 707 mmHg 87%
    16:00 -3°C° 0,1 mm 4 m/S 708 mmHg 88%
    17:00 -3°C° 0,1 mm 4 m/S 708 mmHg 89%
    18:00 -4°C° 0,1 mm 4 m/S 709 mmHg 89%
    19:00 -4°C° 0,1 mm 4 m/S 709 mmHg 90%
    20:00 -4°C° 0,1 mm 4 m/S 709 mmHg 91%
    21:00 -4°C° 0,1 mm 4 m/S 709 mmHg 91%
    22:00 -4°C° 0,1 mm 4 m/S 709 mmHg 91%
    23:00 -4°C° 0,1 mm 4 m/S 709 mmHg 90%

    18 Dezember, Montag

    Zeit Temperatur Niederschläge Wind Luftdruck Luftfeuchtigkeit
    00:00 -5°C° 0,1 mm 5 m/S 709 mmHg 89%
    01:00 -5°C° 0,1 mm 5 m/S 709 mmHg 88%
    02:00 -5°C° 0,1 mm 6 m/S 708 mmHg 87%
    03:00 -5°C° 0,1 mm 6 m/S 707 mmHg 86%
    04:00 -6°C° 0,1 mm 7 m/S 706 mmHg 85%
    05:00 -6°C° 1,2 mm 7 m/S 705 mmHg 86%
    06:00 -6°C° 1,2 mm 8 m/S 705 mmHg 88%
    07:00 -6°C° 1,2 mm 8 m/S 704 mmHg 90%
    08:00 -5°C° 0,9 mm 8 m/S 704 mmHg 90%
    09:00 -3°C° 0,9 mm 7 m/S 703 mmHg 91%
    10:00 -2°C° 0,9 mm 7 m/S 703 mmHg 91%
    11:00 -2°C° 0,4 mm 7 m/S 703 mmHg 91%
    12:00 -2°C° 0,4 mm 6 m/S 703 mmHg 91%
    13:00 -1°C° 0,4 mm 5 m/S 703 mmHg 91%
    14:00 -1°C° 0,3 mm 5 m/S 704 mmHg 91%
    15:00 -1°C° 0,3 mm 5 m/S 704 mmHg 91%
    16:00 -2°C° 0,3 mm 5 m/S 705 mmHg 90%
    17:00 -2°C° 0,4 mm 5 m/S 706 mmHg 91%
    18:00 -2°C° 0,4 mm 5 m/S 706 mmHg 92%
    19:00 -2°C° 0,4 mm 5 m/S 707 mmHg 93%
    20:00 -2°C° 0,1 mm 5 m/S 707 mmHg 93%
    21:00 -2°C° 0,1 mm 5 m/S 708 mmHg 93%
    22:00 -2°C° 0,1 mm 5 m/S 708 mmHg 93%
    23:00 -2°C° 0,2 mm 5 m/S 709 mmHg 93%

    19 Dezember, Dienstag

    Zeit Temperatur Niederschläge Wind Luftdruck Luftfeuchtigkeit
    00:00 -2°C° 0,2 mm 5 m/S 709 mmHg 93%
    01:00 -2°C° 0,2 mm 5 m/S 710 mmHg 93%
    02:00 -2°C° 0,2 mm 5 m/S 710 mmHg 93%
    03:00 -2°C° 0,2 mm 5 m/S 711 mmHg 94%
    04:00 -2°C° 0,2 mm 4 m/S 711 mmHg 94%
    05:00 -2°C° 0,1 mm 4 m/S 712 mmHg 94%
    06:00 -3°C° 0,1 mm 4 m/S 712 mmHg 94%
    07:00 -3°C° 0,1 mm 4 m/S 713 mmHg 95%
    08:00 -2°C° 0,1 mm 3 m/S 714 mmHg 95%
    09:00 -1°C° 0,1 mm 3 m/S 714 mmHg 95%
    10:00 -1°C° 0,1 mm 3 m/S 715 mmHg 95%
    11:00 -1°C° 0,1 mm 3 m/S 715 mmHg 95%
    12:00 -1°C° 0,1 mm 3 m/S 715 mmHg 95%
    13:00 -1°C° 0,1 mm 3 m/S 715 mmHg 95%
    14:00 -1°C° 0 mm 3 m/S 715 mmHg 95%
    15:00 -1°C° 0 mm 3 m/S 715 mmHg 94%
    16:00 -1°C° 0 mm 3 m/S 715 mmHg 94%
    17:00 -1°C° 0,1 mm 3 m/S 715 mmHg 94%
    18:00 -1°C° 0,1 mm 3 m/S 716 mmHg 95%
    19:00 -1°C° 0,1 mm 3 m/S 716 mmHg 95%
    20:00 -1°C° 0,3 mm 3 m/S 716 mmHg 95%
    21:00 -1°C° 0,3 mm 3 m/S 716 mmHg 96%
    22:00 -1°C° 0,3 mm 3 m/S 716 mmHg 96%
    23:00 -1°C° 0,3 mm 3 m/S 716 mmHg 96%

    20 Dezember, Mittwoch

    Zeit Temperatur Niederschläge Wind Luftdruck Luftfeuchtigkeit
    00:00 -1°C° 0,3 mm 3 m/S 716 mmHg 96%
    01:00 -1°C° 0,3 mm 3 m/S 716 mmHg 95%
    02:00 -1°C° 0,2 mm 3 m/S 716 mmHg 95%
    03:00 -1°C° 0,2 mm 3 m/S 715 mmHg 94%
    04:00 -1°C° 0,2 mm 3 m/S 715 mmHg 94%
    05:00 -1°C° 0,2 mm 2 m/S 715 mmHg 93%
    06:00 -1°C° 0,2 mm 2 m/S 715 mmHg 93%
    07:00 -1°C° 0,2 mm 2 m/S 715 mmHg 93%
    08:00 -1°C° 0,2 mm 2 m/S 715 mmHg 94%
    09:00 -1°C° 0,2 mm 2 m/S 716 mmHg 95%
    10:00 -1°C° 0,2 mm 2 m/S 716 mmHg 96%
    11:00 +1°C° 0,2 mm 2 m/S 716 mmHg 96%
    12:00 +1°C° 0,2 mm 2 m/S 716 mmHg 97%
    13:00 +1°C° 0,2 mm 2 m/S 716 mmHg 97%
    14:00 +1°C° 0,1 mm 2 m/S 716 mmHg 98%
    15:00 +1°C° 0,1 mm 2 m/S 716 mmHg 98%
    16:00 +1°C° 0,1 mm 2 m/S 716 mmHg 98%
    17:00 +1°C° 0 mm 2 m/S 716 mmHg 98%
    18:00 +2°C° 0 mm 2 m/S 716 mmHg 98%
    19:00 +2°C° 0 mm 2 m/S 716 mmHg 98%
    20:00 +2°C° 0,1 mm 2 m/S 716 mmHg 98%
    21:00 +2°C° 0,1 mm 2 m/S 716 mmHg 98%
    22:00 +2°C° 0,1 mm 2 m/S 716 mmHg 98%
    23:00 +2°C° 0,1 mm 2 m/S 716 mmHg 98%
    Mehr zeigen